Wind_Speed
21 20 23 25 25 23 23 21 19 19 19 19 19 17 14 13 13 16 18 18 19 18 18 17 16 13 11 7 2 10 13 6 16 17 16 2 0 15 14 10 10 11 11 12 12
22 23 25 26 26 25 23 22 21 20 20 20 20 18 15 15 13 16 18 21 22 21 20 19 17 16 13 11 9 6 6 8 21 11 21 12 11 3 7 12 11 11 10 9 10
22 23 24 25 24 23 22 22 22 21 21 22 22 20 17 16 16 18 19 22 23 25 22 20 18 16 15 14 13 7 11 10 8 4 15 12 12 4 9 10 11 12 9 8 7
16 17 19 20 22 22 23 23 23 22 22 24 23 21 19 19 21 15 19 23 25 27 25 23 20 18 16 14 13 9 7 13 6 9 13 6 12 8 10 7 13 11 9 8 9
17 18 18 18 19 19 20 21 22 22 24 26 25 24 22 20 17 13 20 22 26 27 27 25 23 20 17 14 16 13 10 13 8 8 15 11 9 16 14 15 10 9 8 9 8
19 19 20 20 20 19 18 19 21 23 24 26 26 25 24 18 24 9 20 21 26 28 28 28 26 22 21 19 13 17 17 10 13 10 9 9 11 12 13 10 8 10 10 9 8
19 20 21 22 21 20 20 20 20 23 25 26 27 27 25 21 23 17 18 23 26 28 29 29 28 28 23 20 20 15 15 13 11 11 11 9 10 11 16 11 12 12 11 10 9
20 21 22 23 24 25 23 21 22 24 25 26 27 28 21 31 22 19 18 23 25 26 30 30 30 30 30 23 23 19 15 13 6 10 16 12 12 14 17 15 14 13 12 12 11
21 23 23 24 24 25 27 24 24 26 27 28 29 28 23 30 19 20 20 22 25 25 28 31 33 31 28 25 19 15 17 17 27 27 15 17 20 25 15 16 16 13 14 13 12
22 23 23 26 27 26 27 28 28 28 30 29 29 26 26 25 23 21 20 23 26 25 26 28 29 28 29 28 24 15 20 29 22 28 37 22 12 21 15 15 16 17 15 14 13
25 28 28 26 26 29 28 28 32 34 30 28 28 26 28 27 24 22 22 25 28 29 25 24 27 27 28 19 30 29 31 25 28 33 20 13 13 11 16 16 19 18 17 15 13
24 27 29 28 29 28 31 30 32 32 31 30 31 27 30 27 24 24 25 29 31 28 26 28 26 21 22 27 32 38 27 36 28 29 30 27 35 20 16 18 20 20 17 15 12
26 27 29 29 30 30 29 32 31 32 33 33 30 29 31 29 25 26 26 26 28 28 26 27 21 19 19 31 33 31 38 31 39 41 29 33 22 26 23 22 23 22 18 16 13
28 28 30 33 33 31 29 31 30 30 33 28 33 28 35 32 32 29 28 26 29 26 26 27 19 28 27 28 36 36 27 32 40 37 40 25 22 25 23 25 26 21 18 15 14
30 29 30 34 34 30 28 28 27 27 29 28 36 35 27 34 22 29 28 30 26 24 31 29 26 26 28 24 35 37 22 31 28 39 33 30 29 26 22 28 28 21 18 15 15
33 32 32 35 34 28 25 23 25 25 23 20 33 27 30 28 29 29 34 33 26 30 31 28 21 25 24 30 35 29 26 7 17 37 34 23 20 25 24 29 26 21 18 18 15
33 33 33 35 28 24 21 19 22 22 15 11 26 25 29 26 27 34 35 37 34 34 33 28 26 30 27 37 33 32 11 17 23 25 29 31 22 16 18 28 26 23 20 20 17
32 33 34 34 28 22 20 17 18 13 14 11 11 16 24 25 26 33 36 37 32 30 28 30 29 33 26 36 31 26 34 21 24 22 35 26 36 32 27 35 33 19 20 23 24
33 33 34 31 25 20 19 16 13 20 12 20 14 18 13 17 21 32 38 36 34 31 29 27 26 23 30 27 42 39 32 28 28 19 37 37 26 43 39 37 35 25 25 25 27
32 32 34 28 23 19 18 15 18 29 13 29 24 16 14 17 20 25 34 35 34 31 25 25 27 29 21 20 36 39 45 26 27 27 30 41 30 32 30 34 42 26 19 26 26
33 34 31 25 22 18 17 16 20 26 33 27 38 25 17 18 21 25 25 31 33 31 28 29 34 40 31 37 41 32 37 29 27 33 25 44 35 31 35 45 45 30 32 31 26
31 35 30 23 19 18 16 16 21 28 33 32 29 37 23 21 23 26 27 23 28 30 33 30 31 37 44 33 32 34 30 39 29 26 31 51 50 45 32 24 36 29 24 36 29
32 35 28 22 20 18 17 16 19 26 29 31 27 35 37 31 34 36 30 25 23 29 33 32 36 35 31 42 38 31 32 32 31 28 25 34 47 57 52 48 43 48 49 47 51
32 32 35 18 21 20 19 20 19 20 23 28 30 37 43 42 32 40 35 30 25 28 28 32 35 38 43 35 28 36 39 26 30 31 24 25 38 53 47 43 42 53 53 46 50
32 32 29 28 21 24 22 21 21 20 17 21 29 33 39 40 33 40 36 37 33 40 42 38 39 35 31 39 35 37 31 35 34 31 30 15 29 40 47 48 46 55 31 37 46
34 33 30 26 24 24 23 23 23 22 25 26 26 27 26 29 37 20 23 31 31 30 45 39 35 33 34 36 36 41 33 39 37 32 37 23 27 35 37 41 54 20 31 23 35
37 36 32 27 26 27 22 29 30 31 28 26 27 32 33 27 38 46 49 47 48 44 46 45 39 32 32 28 39 46 25 32 46 38 27 34 30 32 27 28 51 40 32 24 32
Wind_Direction
280 278 272 275 277 273 275 269 270 266 264 254 255 252 245 236 219 220 211 212 212 212 204 202 195 198 178 179 185 150 132 152 111 124 117 354 215 188 185 172 168 172 164 157 155
282 277 273 274 274 272 267 261 260 261 257 249 252 249 247 240 227 217 212 210 211 214 210 205 201 201 207 199 211 224 214 145 63 107 88 232 152 251 210 193 186 175 183 177 167
288 283 280 277 274 267 259 255 257 258 250 245 247 247 247 240 230 219 210 210 211 215 213 209 210 206 211 215 210 252 224 194 192 80 45 214 246 159 220 207 194 181 186 190 190
303 298 291 285 280 275 267 258 252 247 242 240 242 246 244 239 237 226 218 211 212 215 213 214 214 211 218 227 210 218 273 258 215 148 206 193 174 235 210 173 184 193 189 200 193
301 300 298 297 293 284 272 263 254 247 238 236 237 242 245 243 250 220 218 213 215 216 214 214 218 217 221 221 219 202 204 276 69 251 194 224 122 209 232 205 161 204 199 193 190
294 293 293 294 291 287 281 268 256 248 240 236 238 242 246 244 240 222 226 214 214 215 216 218 219 220 219 215 232 224 198 203 206 206 221 197 209 214 250 268 169 199 195 207 200
301 294 287 284 284 282 277 272 261 253 246 242 241 242 247 243 247 236 225 221 214 215 216 218 219 221 219 224 223 221 241 218 227 191 244 213 221 228 239 229 201 211 218 206 202
303 301 296 290 282 278 276 268 262 257 250 246 248 247 242 245 247 247 230 222 215 214 216 216 219 223 222 228 234 206 220 229 197 275 210 233 183 210 234 229 219 221 214 201 194
306 299 296 292 285 277 270 269 263 256 253 251 250 250 240 247 249 240 229 218 215 213 214 215 219 223 221 229 241 254 228 228 202 179 246 225 199 203 210 221 223 212 202 196 189
310 305 301 292 286 281 274 264 260 257 252 250 254 250 239 241 237 235 222 216 213 212 212 218 226 224 224 222 230 226 225 245 208 167 199 212 214 210 208 215 218 199 191 188 181
307 304 303 297 285 279 273 268 257 252 252 252 246 236 241 240 236 233 219 216 214 215 214 217 224 225 231 230 231 244 217 248 243 186 216 188 219 198 215 216 209 191 186 183 194
301 298 296 296 290 279 273 267 263 262 248 248 243 234 239 240 239 230 220 218 216 217 220 227 228 229 236 229 238 242 246 243 232 202 191 200 173 255 228 215 204 192 190 191 184
305 299 292 291 288 283 274 271 265 258 254 243 246 239 236 234 235 232 224 223 223 219 222 233 238 239 232 242 241 248 247 251 248 222 180 206 176 202 212 207 202 191 191 188 181
313 303 294 288 291 286 275 267 268 260 256 243 245 239 231 232 228 232 222 223 223 223 221 230 217 210 238 255 257 255 263 254 262 212 185 197 246 188 208 203 202 195 191 188 182
318 307 299 292 294 289 280 268 264 261 258 247 235 232 233 237 227 231 229 221 223 223 222 227 218 217 246 215 257 263 282 234 193 214 221 181 202 184 238 203 207 203 200 196 195
321 315 306 303 303 294 283 269 263 256 253 254 249 237 235 236 225 217 223 225 222 227 228 230 225 218 233 251 256 242 244 274 239 174 220 174 191 199 220 199 215 209 209 209 207
323 316 309 306 303 294 281 268 257 254 230 228 268 249 231 232 221 221 223 223 218 221 225 221 224 213 221 230 219 248 213 212 253 227 186 178 194 190 228 243 244 227 214 219 217
323 318 313 309 303 288 278 264 254 236 228 176 222 281 229 228 222 220 224 224 220 225 230 218 227 237 212 245 259 236 240 223 233 226 209 193 201 210 212 223 241 240 243 226 224
320 317 313 309 299 289 275 261 241 189 202 212 231 204 245 232 221 219 221 228 224 223 225 219 229 224 245 216 241 247 242 215 220 228 222 201 196 201 209 224 223 216 231 239 233
319 315 313 308 297 285 271 247 228 206 228 206 196 191 226 218 225 241 223 221 230 222 224 209 234 214 244 228 242 245 243 241 214 229 222 211 209 277 176 213 213 209 231 246 254
316 315 313 306 297 284 272 248 225 222 227 229 213 180 189 198 237 235 239 221 223 226 218 205 233 196 203 210 252 259 245 252 244 246 242 193 174 229 207 202 171 204 196 237 241
313 313 312 304 291 281 274 253 237 221 220 233 224 215 178 200 205 201 221 232 226 227 220 212 219 237 205 204 238 258 266 251 242 252 270 201 196 195 210 197 173 173 213 217 201
308 309 312 303 286 278 267 251 241 237 235 240 228 210 190 194 210 193 186 198 225 226 224 216 223 226 240 207 198 223 247 258 241 242 252 222 187 198 205 208 183 183 194 205 207
304 306 307 297 284 270 262 260 255 238 238 238 228 211 211 203 207 202 197 188 184 210 228 224 225 226 243 240 228 224 222 245 253 240 239 256 225 204 202 201 197 193 191 184 223
301 300 300 295 280 271 263 254 252 253 224 249 233 228 222 224 225 218 209 191 196 203 210 212 224 222 234 266 271 279 225 209 247 257 257 267 269 201 213 215 204 228 249 166 210
298 296 295 289 275 268 262 254 249 242 236 220 236 228 234 241 234 229 231 202 214 212 206 207 217 223 226 250 254 258 239 208 222 209 257 238 243 264 281 235 202 212 201 171 212
298 294 293 289 275 263 252 245 239 242 243 244 242 223 209 208 221 223 218 210 209 212 208 210 216 213 218 225 249 251 247 260 238 223 216 243 242 255 261 271 254 237 230 213 205
Height
5871 5871 5872 5873 5874 5874 5874 5874 5874 5874 5874 5875 5876 5877 5878 5879 5880 5882 5884 5886 5887 5888 5890 5892 5894 5896 5896 5898 5897 5896 5899 5895 5890 5898 5905 5904 5906 5904 5905 5907 5907 5908 5910 5910 5911
5866 5866 5867 5867 5867 5868 5868 5869 5869 5870 5870 5871 5872 5873 5875 5876 5878 5880 5882 5882 5884 5886 5888 5890 5892 5895 5895 5897 5897 5897 5897 5894 5889 5895 5903 5910 5908 5906 5907 5908 5908 5910 5912 5912 5913
5862 5862 5861 5861 5861 5862 5862 5863 5864 5865 5866 5867 5868 5869 5871 5872 5874 5875 5877 5880 5881 5883 5886 5888 5889 5893 5894 5895 5897 5896 5894 5903 5903 5895 5890 5908 5901 5906 5909 5907 5909 5910 5912 5913 5915
5859 5858 5857 5856 5856 5857 5858 5858 5859 5860 5861 5862 5864 5865 5867 5868 5870 5873 5874 5876 5878 5880 5883 5886 5888 5890 5892 5893 5897 5899 5897 5898 5899 5896 5909 5908 5906 5910 5904 5903 5909 5911 5912 5914 5916
5857 5856 5855 5854 5853 5852 5852 5853 5854 5855 5856 5857 5859 5860 5862 5864 5867 5870 5871 5873 5875 5878 5881 5883 5886 5888 5890 5892 5889 5900 5902 5898 5897 5907 5908 5907 5901 5909 5907 5903 5910 5911 5913 5915 5917
5853 5852 5851 5850 5850 5849 5849 5849 5849 5850 5851 5852 5854 5855 5857 5862 5859 5866 5867 5869 5871 5874 5877 5880 5883 5886 5887 5890 5891 5889 5896 5894 5901 5906 5904 5905 5908 5910 5909 5905 5909 5911 5913 5915 5917
5850 5848 5847 5846 5846 5845 5845 5845 5846 5846 5847 5848 5849 5850 5853 5857 5856 5860 5862 5864 5867 5870 5874 5877 5879 5882 5885 5889 5889 5889 5898 5895 5897 5900 5906 5904 5908 5909 5909 5909 5912 5913 5914 5915 5917
5846 5844 5843 5842 5842 5841 5841 5841 5841 5841 5842 5844 5845 5845 5851 5847 5853 5855 5858 5860 5863 5867 5870 5872 5875 5878 5881 5884 5885 5887 5891 5894 5897 5901 5904 5904 5907 5911 5908 5909 5911 5912 5914 5915 5917
5842 5840 5838 5837 5836 5836 5836 5837 5836 5835 5836 5838 5839 5842 5846 5843 5850 5850 5853 5856 5859 5863 5866 5868 5870 5873 5878 5880 5885 5887 5891 5892 5889 5886 5905 5903 5905 5904 5906 5907 5908 5911 5913 5915 5916
5837 5835 5833 5832 5830 5829 5829 5830 5830 5829 5829 5831 5833 5838 5839 5840 5843 5846 5849 5851 5855 5859 5862 5865 5867 5869 5873 5877 5884 5889 5887 5882 5888 5888 5881 5896 5904 5904 5906 5905 5907 5910 5912 5914 5916
5833 5830 5827 5825 5823 5822 5822 5822 5822 5822 5823 5826 5827 5831 5832 5835 5838 5842 5845 5847 5851 5854 5858 5862 5862 5865 5870 5875 5872 5862 5880 5874 5885 5887 5882 5894 5900 5903 5904 5904 5906 5910 5912 5914 5915
5827 5823 5821 5819 5816 5815 5814 5813 5812 5815 5818 5818 5819 5824 5825 5830 5834 5837 5839 5843 5845 5850 5855 5856 5858 5865 5866 5868 5869 5872 5876 5876 5880 5885 5889 5889 5877 5901 5902 5904 5907 5909 5912 5913 5915
5821 5817 5813 5811 5808 5807 5806 5805 5805 5805 5808 5812 5814 5817 5821 5825 5829 5832 5835 5840 5843 5847 5851 5853 5858 5861 5863 5861 5865 5868 5870 5876 5873 5880 5885 5882 5876 5896 5898 5903 5906 5908 5911 5912 5914
5815 5811 5807 5804 5802 5798 5797 5796 5797 5798 5798 5807 5806 5811 5811 5817 5821 5827 5830 5835 5837 5843 5847 5849 5855 5858 5860 5860 5862 5862 5866 5870 5863 5864 5876 5884 5877 5893 5895 5901 5905 5907 5910 5912 5914
5808 5804 5800 5796 5793 5789 5789 5789 5789 5791 5793 5795 5796 5800 5808 5808 5823 5821 5827 5828 5834 5839 5841 5845 5849 5855 5856 5858 5859 5859 5863 5858 5859 5867 5862 5867 5883 5890 5895 5899 5902 5905 5909 5911 5913
5801 5797 5793 5789 5785 5783 5781 5781 5783 5786 5788 5791 5788 5797 5799 5805 5811 5816 5819 5824 5830 5832 5834 5840 5846 5851 5859 5859 5857 5851 5854 5855 5862 5865 5858 5869 5873 5878 5891 5898 5902 5904 5908 5910 5912
5794 5789 5785 5780 5778 5776 5775 5775 5778 5780 5787 5790 5786 5791 5794 5799 5805 5808 5812 5816 5820 5824 5828 5836 5841 5846 5851 5852 5848 5848 5840 5860 5864 5866 5866 5876 5884 5896 5891 5895 5898 5902 5904 5908 5911
5787 5782 5778 5773 5770 5770 5769 5770 5772 5778 5784 5785 5790 5786 5788 5793 5799 5802 5806 5810 5816 5821 5826 5830 5838 5839 5843 5842 5843 5849 5845 5852 5858 5864 5869 5872 5869 5890 5892 5894 5896 5897 5901 5904 5908
5780 5776 5770 5766 5763 5763 5764 5764 5769 5773 5775 5780 5784 5785 5789 5790 5794 5797 5800 5805 5812 5816 5820 5827 5833 5839 5840 5846 5840 5842 5842 5844 5852 5856 5862 5869 5874 5878 5883 5891 5892 5895 5898 5899 5903
5774 5770 5765 5761 5758 5757 5758 5759 5760 5763 5765 5770 5773 5780 5786 5792 5794 5795 5796 5802 5806 5811 5817 5823 5826 5833 5835 5838 5834 5836 5840 5831 5844 5850 5854 5865 5872 5852 5861 5880 5887 5893 5895 5896 5898
5767 5762 5757 5754 5752 5752 5752 5753 5754 5757 5758 5761 5765 5769 5775 5786 5792 5793 5794 5798 5803 5807 5812 5817 5819 5825 5822 5827 5823 5832 5835 5838 5841 5843 5846 5854 5867 5852 5853 5855 5863 5895 5896 5889 5896
5761 5755 5750 5748 5747 5746 5746 5747 5748 5748 5749 5752 5756 5762 5765 5774 5777 5782 5790 5795 5800 5802 5805 5812 5817 5813 5815 5823 5830 5827 5828 5831 5834 5839 5837 5840 5852 5851 5850 5848 5864 5874 5888 5894 5892
5753 5748 5745 5742 5740 5739 5740 5741 5741 5742 5743 5745 5749 5755 5757 5761 5766 5771 5777 5789 5795 5798 5800 5808 5809 5816 5803 5814 5810 5822 5816 5826 5831 5831 5837 5832 5843 5847 5848 5853 5848 5856 5858 5877 5880
5745 5741 5735 5737 5734 5733 5733 5734 5735 5735 5736 5737 5741 5745 5750 5754 5758 5765 5770 5778 5786 5793 5798 5800 5804 5807 5803 5809 5808 5816 5824 5825 5824 5824 5832 5839 5839 5841 5842 5844 5847 5845 5845 5846 5879
5738 5734 5731 5728 5727 5724 5725 5726 5727 5730 5729 5732 5734 5738 5742 5746 5751 5756 5762 5769 5772 5778 5783 5790 5794 5802 5808 5803 5804 5811 5812 5812 5823 5823 5822 5828 5826 5830 5834 5835 5842 5841 5836 5833 5865
5728 5725 5723 5721 5719 5717 5717 5719 5719 5722 5723 5722 5726 5729 5736 5740 5744 5750 5755 5760 5764 5772 5778 5782 5787 5795 5801 5802 5805 5800 5804 5801 5813 5814 5821 5826 5833 5832 5825 5834 5836 5839 5816 5830 5858
5718 5715 5713 5712 5711 5710 5709 5705 5707 5707 5712 5716 5717 5718 5723 5730 5726 5733 5736 5747 5753 5759 5768 5777 5783 5788 5794 5803 5790 5787 5798 5804 5806 5811 5811 5820 5827 5828 5833 5835 5834 5838 5838 5810 5843